www.pogodaiklimat.ru

Погода и климат >> Архив погоды >> Япония >> Миякедзима


ПОГОДА на Миякедзиме

  • Прогноз погоды на Миякедзиме
  • Монитор погоды на Миякедзиме

АРХИВ ПОГОДЫ на Миякедзиме

Время (UTC), дата Ветер
(напр.,м/с)
 
Видим.   Явления Облачность Т
(С)
Тd
(С)
f
(%)
Тe
(С)
Тes
(С)
Комфортность P
(гПа)
Po
(гПа)
Тmin
(С)
Tmax
(С)
R
(мм)
R24
(мм)
S
(см)
01 9.09 ЮЗ 7 14 км н/о +28.9 +26.5 87 +44 +44 опасность
перегрева
1009.0 1004.5
02 9.09 ЮЗ 9 13 км н/о +29.2 +26.6 86 +45 +45 опасность
перегрева
1008.9 1004.4
03 9.09 ЮЗ 8 12 км н/о +29.0 +26.6 87 +45 +45 опасность
перегрева
1008.9 1004.4
04 9.09 ЮЗ 8 13 км н/о +28.7 +26.5 88 +44 +44 опасность
перегрева
1008.9 1004.4
05 9.09 ЮЗ 7 12 км н/о +29.0 +26.8 88 +45 +45 опасность
перегрева
1009.4 1004.9
06 9.09 ЮЗ 8 13 км н/о +28.9 +26.7 88 +45 +45 опасность
перегрева
1009.4 1004.9
07 9.09 ЮЗ 8 18 км н/о +28.2 +26.6 91 +44 +44 опасность
перегрева
1009.5 1005.0
08 9.09 ЮЗ 9 18 км н/о +27.7 +26.5 93 +42 +42 опасность
перегрева
1009.8 1005.3
09 9.09 ЮЗ 9 20 км н/о +27.5 +25.9 91 +41 +41 опасность
перегрева
1010.2 1005.7
10 9.09 ЮЗ 9 20 км н/о +27.4 +26.0 92 +41 +41 опасность
перегрева
1011.1 1006.6
11 9.09 ЮЗ 8 20 км н/о +27.4 +26.4 94 +42 +42 опасность
перегрева
1011.9 1007.4
12 9.09 ЮЗ 8 20 км н/о +27.4 +26.4 94 +42 +42 опасность
перегрева
1012.1 1007.6 +29.5
16 9.09 ЮЗ 4 16 км н/о +27.2 +26.9 98 +42 +42 опасность
перегрева
1012.7 1008.2
17 9.09 ЮЗ 4 15 км н/о +27.2 +26.9 98 +42 +42 опасность
перегрева
1012.8 1008.3
18 9.09 ЮЗ 5 18 км н/о +27.1 +26.6 97 +42 +42 опасность
перегрева
1012.9 1008.4
19 9.09 З 5 18 км н/о +27.1 +26.8 98 +42 +42 опасность
перегрева
1013.2 1008.7
21 9.09 ЮЗ 5 19 км н/о +27.3 +27.0 98 +43 +43 опасность
перегрева
1013.8 1009.3
23 9.09 ЮЗ 5 20 км н/о +28.0 +27.1 95 +44 +44 опасность
перегрева
1014.3 1009.8
00 10.09 ЮЗ 6 20 км н/о +28.4 +27.0 92 +45 +45 опасность
перегрева
1014.4 1009.9 +27.0
01 10.09 ЮЗ 6 20 км н/о +28.9 +27.3 91 +46 +46 опасность
перегрева
1014.2 1009.7
02 10.09 З 6 20 км н/о +29.1 +27.1 89 +46 +46 опасность
перегрева
1014.0 1009.5
04 10.09 ЮЗ 6 20 км н/о +29.6 +26.6 84 +46 +46 опасность
перегрева
1013.1 1008.6
05 10.09 З 7 20 км н/о +29.6 +26.6 84 +46 +46 опасность
перегрева
1012.6 1008.1
06 10.09 З 6 20 км н/о +29.5 +26.9 86 +46 +46 опасность
перегрева
1012.6 1008.1
07 10.09 З 6 20 км н/о +28.8 +26.6 88 +45 +45 опасность
перегрева
1012.6 1008.1
08 10.09 ЮЗ 5 20 км н/о +28.1 +26.5 91 +43 +43 опасность
перегрева
1012.5 1008.0
09 10.09 ЮЗ 7 20 км н/о +27.5 +25.9 91 +41 +41 опасность
перегрева
1012.4 1007.9
10 10.09 ЮЗ 5 20 км н/о +27.4 +26.2 93 +41 +41 опасность
перегрева
1013.4 1008.9
11 10.09 ЮЗ 5 20 км н/о +27.4 +26.5 95 +42 +42 опасность
перегрева
1014.2 1009.7
12 10.09 ЮЗ 4 20 км н/о +27.3 +26.6 96 +42 +42 опасность
перегрева
1014.6 1010.1 +30.2
13 10.09 ЮЗ 4 20 км н/о +27.2 +26.5 96 +42 +42 опасность
перегрева
1014.8 1010.3
15 10.09 ЮЗ 4 20 км н/о +26.9 +26.4 97 +41 +41 опасность
перегрева
1014.8 1010.3
16 10.09 ЮЗ 4 20 км н/о +26.9 +26.6 98 +41 +41 опасность
перегрева
1014.4 1009.9
17 10.09 ЮЗ 4 20 км н/о +26.8 +26.6 99 +41 +41 опасность
перегрева
1014.2 1009.7
18 10.09 ЮЗ 3 20 км н/о +26.6 +26.4 99 +40 +40 очень
душно
1014.1 1009.5
19 10.09 ЮЗ 3 20 км н/о +26.7 +26.5 99 +41 +41 опасность
перегрева
1014.1 1009.6
20 10.09 ЮЗ 3 20 км н/о +26.6 +26.4 99 +40 +40 очень
душно
1014.4 1009.8
21 10.09 З 3 20 км н/о +26.9 +26.7 99 +42 +42 опасность
перегрева
1014.5 1010.0
22 10.09 З 4 20 км н/о +27.8 +26.8 94 +43 +43 опасность
перегрева
1014.5 1010.0
23 10.09 З 4 20 км н/о +28.4 +26.8 91 +44 +44 опасность
перегрева
1014.4 1009.9
00 11.09 З 5 20 км н/о +28.9 +26.9 89 +45 +45 опасность
перегрева
1014.4 1009.9 +26.6
01 11.09 З 5 20 км н/о +29.0 +26.8 88 +45 +45 опасность
перегрева
1014.3 1009.8
02 11.09 З 4 20 км н/о +29.1 +26.9 88 +46 +46 опасность
перегрева
1013.5 1009.0
03 11.09 З 5 20 км н/о +29.6 +27.2 87 +47 +47 опасность
перегрева
1012.9 1008.4
04 11.09 З 6 20 км н/о +29.6 +26.8 85 +46 +46 опасность
перегрева
1012.1 1007.6
05 11.09 З 5 20 км н/о +29.3 +26.9 87 +46 +46 опасность
перегрева
1011.1 1006.6
06 11.09 З 5 20 км н/о +29.5 +26.9 86 +46 +46 опасность
перегрева
1010.5 1006.0
07 11.09 ЮЗ 5 20 км н/о +28.9 +26.5 87 +44 +44 опасность
перегрева
1010.4 1005.9
08 11.09 ЮЗ 5 20 км н/о +28.3 +26.3 89 +43 +43 опасность
перегрева
1010.2 1005.7
09 11.09 ЮЗ 6 20 км н/о +27.8 +26.2 91 +42 +42 опасность
перегрева
1010.3 1005.8
10 11.09 ЮЗ 5 20 км н/о +28.0 +26.6 92 +43 +43 опасность
перегрева
1010.9 1006.4
11 11.09 ЮЗ 6 20 км н/о +28.0 +26.8 93 +44 +44 опасность
перегрева
1010.9 1006.4
12 11.09 ЮЗ 6 20 км н/о +28.1 +26.9 93 +44 +44 опасность
перегрева
1010.8 1006.3 +29.8
13 11.09 ЮЗ 6 20 км н/о +28.0 +26.9 94 +44 +44 опасность
перегрева
1010.8 1006.3
14 11.09 ЮЗ 6 16 км н/о +27.9 +27.2 96 +44 +44 опасность
перегрева
1009.9 1005.4
15 11.09 ЮЗ 5 13 км н/о +27.8 +27.3 97 +44 +44 опасность
перегрева
1009.4 1004.9
16 11.09 З 7 14 км н/о +27.8 +27.1 96 +44 +44 опасность
перегрева
1008.9 1004.4
17 11.09 З 6 13 км н/о +27.6 +26.7 95 +43 +43 опасность
перегрева
1008.4 1003.9
18 11.09 З 8 11 км н/о +27.4 +26.2 93 +41 +41 опасность
перегрева
1008.7 1004.2
19 11.09 З 7 11 км н/о +27.3 +25.9 92 +41 +41 опасность
перегрева
1008.7 1004.2
20 11.09 З 3 12 км н/о +27.2 +25.8 92 +40 +40 очень
душно
1009.1 1004.6
21 11.09 СВ 4 8000 м дымка н/о +27.2 +26.5 96 +42 +42 опасность
перегрева
1010.0 1005.5
23 11.09 В 6 14 км н/о +26.6 +23.9 85 +37 +37 очень
душно
1011.7 1007.2
00 12.09 В 9 17 км н/о +26.8 +23.1 80 +36 +36 очень
душно
1012.2 1007.7 +26.0
01 12.09 В 9 18 км н/о +27.2 +23.0 78 +36 +36 очень
душно
1012.2 1007.7
02 12.09 В 9 16 км н/о +26.6 +22.0 76 +34 +34 очень
душно
1012.6 1008.1
03 12.09 В 8 14 км н/о +26.1 +21.8 77 +34 +34 очень
душно
1013.0 1008.4
04 12.09 В 8 19 км н/о +26.7 +21.0 71 +34 +34 очень
душно
1012.4 1007.9
05 12.09 В 8 14 км н/о +26.2 +21.2 74 +33 +33 очень
душно
1012.3 1007.8
06 12.09 В 8 16 км н/о +26.2 +21.0 73 +33 +33 очень
душно
1012.3 1007.8
07 12.09 В 8 19 км н/о +25.8 +20.6 73 +32 +32 очень
душно
1012.7 1008.1
08 12.09 В 7 18 км н/о +25.4 +19.5 70 +31 +31 очень
душно
1012.8 1008.2
09 12.09 В 7 20 км н/о +25.1 +19.3 70 +30 +30 душно 1013.1 1008.5
10 12.09 В 6 20 км н/о +25.0 +18.7 68 +30 +30 душно 1013.8 1009.2
11 12.09 В 6 20 км н/о +25.2 +19.8 72 +31 +31 очень
душно
1014.2 1009.6
12 12.09 В 7 20 км н/о +25.3 +19.4 70 +31 +31 очень
душно
1014.3 1009.7 +27.4
13 12.09 В 7 20 км н/о +25.3 +19.9 72 +31 +31 очень
душно
1014.1 1009.5
15 12.09 В 7 20 км н/о +25.4 +19.1 68 +30 +30 душно 1013.6 1009.0
16 12.09 В 8 20 км н/о +25.6 +19.3 68 +31 +31 очень
душно
1013.4 1008.8
18 12.09 В 7 20 км н/о +25.3 +19.2 69 +30 +30 душно 1012.8 1008.2
19 12.09 В 7 20 км н/о +25.3 +19.2 69 +30 +30 душно 1013.2 1008.6
20 12.09 В 9 20 км н/о +25.4 +18.8 67 +30 +30 душно 1013.1 1008.5
21 12.09 В 9 20 км н/о +25.4 +19.5 70 +31 +31 очень
душно
1013.5 1008.9
22 12.09 В 8 20 км н/о +25.4 +19.5 70 +31 +31 очень
душно
1013.7 1009.1
23 12.09 В 8 20 км н/о +25.5 +19.4 69 +31 +31 очень
душно
1014.6 1010.0
01 13.09 В 8 20 км слаб. дождь н/о +25.1 +19.5 71 +30 +30 душно 1014.8 1010.2
02 13.09 В 8 20 км в посл. час дождь н/о +25.3 +19.4 70 +31 +31 очень
душно
1014.5 1009.9
03 13.09 В 7 20 км {дождь} н/о +25.4 +19.5 70 +31 +31 очень
душно
1014.2 1009.6
04 13.09 В 8 20 км в посл. час дождь н/о +25.5 +19.6 70 +31 +31 очень
душно
1013.8 1009.2
05 13.09 В 7 20 км слаб. дождь н/о +25.1 +19.5 71 +30 +30 душно 1013.8 1009.2
06 13.09 В 8 20 км в посл. час дождь н/о +25.5 +19.4 69 +31 +31 очень
душно
1013.7 1009.1 0.0
08 13.09 В 9 20 км н/о +25.0 +18.7 68 +30 +30 душно 1013.9 1009.3
09 13.09 В 8 20 км н/о +25.0 +18.7 68 +30 +30 душно 1013.6 1009.0
10 13.09 В 9 20 км н/о +25.0 +18.2 66 +29 +29 душно 1014.6 1010.0
11 13.09 В 9 20 км н/о +25.0 +18.2 66 +29 +29 душно 1015.2 1010.6
12 13.09 В 7 20 км н/о +25.0 +18.5 67 +30 +30 душно 1014.6 1010.0 +25.6 0.0
13 13.09 В 8 18 км н/о +25.2 +19.6 71 +31 +31 очень
душно
1014.5 1009.9
14 13.09 СВ 5 20 км н/о +25.3 +20.6 75 +31 +31 очень
душно
1014.6 1010.0
15 13.09 СВ 12 18 км н/о +24.3 +21.4 84 +31 +31 очень
душно
1014.1 1009.5
16 13.09 СВ 12 15 км н/о +24.0 +21.5 86 +31 +31 очень
душно
1013.5 1008.9
17 13.09 СВ 12 14 км н/о +24.0 +22.3 90 +31 +31 очень
душно
1013.3 1008.7
18 13.09 СВ 12 16 км н/о +23.9 +22.0 89 +31 +31 очень
душно
1013.0 1008.4
19 13.09 СВ 13 17 км н/о +23.4 +21.3 88 +31 +31 очень
душно
1013.1 1008.5
21 13.09 СВ 11 14 км в посл. час дождь н/о +23.7 +22.0 90 +31 +31 очень
душно
1013.5 1008.9
00 14.09 СВ 10 15 км {дождь} н/о +24.9 +23.2 90 +33 +33 очень
душно
1013.3 1008.7 +23.4 0.0
01 14.09 В 5 10 км н/о +25.8 +22.7 83 +34 +34 очень
душно
1013.1 1008.5
02 14.09 В 7 18 км н/о +27.3 +21.8 72 +35 +35 очень
душно
1012.5 1008.0
03 14.09 В 7 16 км н/о +27.2 +21.7 72 +35 +35 очень
душно
1012.0 1007.5
04 14.09 В 7 17 км н/о +27.0 +21.5 72 +34 +34 очень
душно
1011.7 1007.2
05 14.09 В 7 16 км н/о +27.5 +22.2 73 +36 +36 очень
душно
1011.3 1006.8
06 14.09 В 7 14 км н/о +26.6 +22.2 77 +35 +35 очень
душно
1010.9 1006.4
07 14.09 В 7 13 км н/о +26.4 +21.8 76 +34 +34 очень
душно
1011.1 1006.6
08 14.09 В 7 16 км н/о +26.3 +21.9 77 +34 +34 очень
душно
1011.2 1006.7
09 14.09 В 7 12 км н/о +26.1 +22.4 80 +34 +34 очень
душно
1011.4 1006.9
10 14.09 В 6 14 км н/о +25.9 +22.2 80 +34 +34 очень
душно
1011.9 1007.3
11 14.09 В 6 13 км н/о +25.9 +22.4 81 +34 +34 очень
душно
1012.0 1007.4
12 14.09 В 7 17 км слаб. дождь н/о +25.6 +22.5 83 +34 +34 очень
душно
1011.9 1007.3 +27.9 0.0
13 14.09 В 8 12 км слаб. дождь н/о +25.1 +23.0 88 +33 +33 очень
душно
1011.7 1007.1
14 14.09 В 6 10 км в посл. час дождь н/о +25.1 +23.3 90 +34 +34 очень
душно
1011.2 1006.6
15 14.09 В 6 11 км {дождь} н/о +25.6 +22.7 84 +34 +34 очень
душно
1010.6 1006.0
16 14.09 В 6 14 км н/о +25.4 +22.3 83 +33 +33 очень
душно
1010.3 1005.7
17 14.09 В 5 18 км в посл. час дождь н/о +25.6 +22.5 83 +34 +34 очень
душно
1009.7 1005.2
18 14.09 СВ 5 19 км {дождь} н/о +25.7 +22.4 82 +34 +34 очень
душно
1009.6 1005.1 0.5
19 14.09 СВ 7 20 км н/о +26.0 +21.7 77 +33 +33 очень
душно
1009.3 1004.8
20 14.09 СВ 8 15 км слаб. дождь н/о +25.4 +22.5 84 +33 +33 очень
душно
1009.4 1004.9
21 14.09 СВ 13 18 км в посл. час дождь н/о +25.4 +22.7 85 +33 +33 очень
душно
1009.5 1005.0
22 14.09 СВ 11 17 км н/о +25.4 +22.5 84 +33 +33 очень
душно
1009.0 1004.5
23 14.09 СВ 12 17 км н/о +25.6 +22.9 85 +34 +34 очень
душно
1009.0 1004.5
00 15.09 СВ 10 20 км {дождь} н/о +25.5 +22.6 84 +34 +34 очень
душно
1008.7 1004.2 +24.3 0.5
01 15.09 СВ 9 16 км н/о +25.8 +23.5 87 +35 +35 очень
душно
1008.2 1003.7
02 15.09 СВ 12 14 км н/о +25.5 +23.0 86 +34 +34 очень
душно
1007.6 1003.1
03 15.09 СВ 13 13 км н/о +25.9 +23.6 87 +35 +35 очень
душно
1006.8 1002.3
04 15.09 СВ 13 14 км н/о +26.0 +23.7 87 +35 +35 очень
душно
1006.1 1001.6
05 15.09 СВ 13 14 км н/о +26.2 +23.9 87 +36 +36 очень
душно
1005.3 1000.8
06 15.09 СВ 13 12 км н/о +25.9 +24.0 89 +36 +36 очень
душно
1004.9 1000.4
07 15.09 СВ 12 11 км н/о +26.0 +23.9 88 +36 +36 очень
душно
1004.6 1000.1
08 15.09 СВ 15 10 км слаб. дождь н/о +25.4 +24.2 93 +35 +35 очень
душно
1004.8 1000.3
09 15.09 СВ 14 5000 м слаб. дождь н/о +25.4 +24.4 94 +35 +35 очень
душно
1004.8 1000.3
10 15.09 СВ 14 8000 м в посл. час дождь н/о +25.8 +25.1 96 +37 +37 очень
душно
1004.7 1000.2
11 15.09 СВ 15 6000 м слаб. дождь н/о +25.4 +24.9 97 +36 +36 очень
душно
1004.8 1000.3
12 15.09 СВ 16 2400 м слаб. дождь н/о +25.1 +25.1 100 +36 +36 очень
душно
1004.3 999.8 +26.4 1
13 15.09 СВ 15 4900 м слаб. дождь н/о +25.3 +25.3 100 +36 +36 очень
душно
1003.7 999.2
14 15.09 СВ 16 2000 м дождь н/о +25.0 +25.0 100 +36 +36 очень
душно
1003.0 998.5
16 15.09 В 7 2900 м дождь н/о +25.6 +25.6 100 +37 +37 очень
душно
1001.5 997.0
17 15.09 В 7 4600 м слаб. дождь н/о +25.6 +25.6 100 +37 +37 очень
душно
1001.0 996.5
18 15.09 В 6 4300 м слаб. дождь н/о +25.5 +25.5 100 +37 +37 очень
душно
1000.5 996.0 14
19 15.09 В 6 3500 м слаб. дождь н/о +25.5 +25.3 99 +37 +37 очень
душно
999.5 995.0
21 15.09 СВ 12 2500 м дождь н/о +25.3 +25.3 100 +36 +36 очень
душно
998.5 994.0
22 15.09 С 11 2100 м дождь н/о +24.1 +24.1 100 +33 +33 очень
душно
997.4 992.9
23 15.09 С 10 2100 м дождь н/о +25.3 +25.3 100 +36 +36 очень
душно
996.8 992.3

 

Местоположение метеостанции Миякедзима (Япония): широта 34.12 долгота 139.51 высота над уровнем моря 37 м.

В архиве по умолчанию представлена погода на Миякедзиме за последнюю неделю. Архивные данные за месяц целиком и за предыдущие месяцы, начиная с января 2011 года, Вы можете получить, выбрав интересующий диапазон дат из раскрывающегося списка и нажав кнопку "Ввод!".


*Определитесь, кто Вы:
робот инопланетянин человек

Внимание! Время в таблицах - всемирное. Для получения местного времени необходимо прибавить поправку, которая равна 9 ч.

Смотрите также архив погоды в соседних городах и на ближайших метеорологических станциях:

Погода на Осиме (Япония) (71 км)
Погода в Иродзаки (Япония) (81 км)
Погода в Татеяме (Япония) (101 км)
Погода в Аджиро (Япония) (110 км)
Погода на Хатидзёдзиме (Япония) (114 км)
Погода в Мисиме (Япония) (123 км)
Погода в Омаэдзаки (Япония) (131 км)
Погода в Кацууре (Япония) (136 км)
Погода в Сидзуоке (Япония) (140 км)
Погода в Иокогаме (Япония) (146 км)

Пояснения к столбцам:

Ветер - указаны скорость ветра в м/с - средняя за 10 мин, порывы в срок и между сроками (в фигурных скобках) и направление, откуда дует ветер: С - северный, СВ - северо-восточный, В - восточный, ЮВ - юго-восточный, Ю - южный, ЮЗ - юго-западный, З - западный, СЗ - северо-западный.
Видимость - горизонтальная дальность видимости в метрах или километрах. При видимости от 1 до 10 км при отсутствии осадков обычно наблюдается дымка, при ухудшении видимости до 1 км и менее - туман. В сухую погоду видимость может ухудшаться дымом, пылью или мглою.
Явления - указаны атмосферные явления, наблюдавшиеся в срок или в последний час перед сроком; фигурными скобками обозначены явления, наблюдавшиеся между сроками (за 1-3 часа до срока); квадратными скобками обозначены град или гололедные отложения с указанием их диаметра в мм.
Облачность - указаны через наклонную черту общая и нижняя облачность в баллах и высота нижней границы облаков в метрах; квадратными скобками обозначены формы облаков: Ci - перистые, Cs - перисто-слоистые, Cc - перисто-кучевые, Ac - высококучевые, As - высокослоистые, Sc - слоисто-кучевые, Ns - слоисто-дождевые, Cu - кучевые, Cb - кучево-дождевые. Подробнее классификацию облаков см. в Атласе облаков (PDF).
T - Температура воздуха - температура, измеренная на высоте 2 м над землей.
Td - Температура точки росы - температура, при понижении до которой содержащийся в воздухе водяной пар достигнет насыщения.
f - Относительная влажность воздуха - влажноcть воздуха, измеренная на высоте 2 м над землей.
Te - Эффективная температура - температура, которую ощущает одетый по сезону человек в тени. Характеристика душности погоды. При расчете учитывается влияние влажности воздуха и скорости ветра на теплоощущения человека.
Tes - Эффективная температура на солнце - температура, которую ощущает человек, с поправкой на солнечный нагрев. Характеристика знойности погоды. Зависит от высоты солнца над горизонтом, облачности и скорости ветра. Ночью, в пасмурную погоду, а также при ветре 12 м/с и более поправка равна нулю.
P - Атмосферное давление - приведенное к уровню моря атмосферное давление.
Po - Атмосферное давление - измеренное на уровне метеостанции атмосферное давление.
Tmin - Минимальная температура - минимум температуры воздуха на высоте 2 м над землей.
Tmax - Максимальная температура - максимум температуры воздуха на высоте 2 м над землей.
R - Количество осадков - Количество выпавших осадков за период времени, мм. При наведении курсора мыши на число - период времени, за который выпало указанное количество осадков.
R24 - Количество осадков - Количество выпавших осадков за 24 часа, мм.
S - Снежный покров - Высота снежного покрова, см. При наведении курсора мыши на число - состояние снежного покрова и степень покрытия местности в баллах.